User: anonymous   Login
Location: Prague
(50.0830°N, 14.4670°E)
Time: 06:57:53
(UTC+01:00)
Language:

UNISAT 6 - Orbit

View from above orbital plane
View from above orbital plane
View from above satellite
View from above satellite

Ground track
Ground track

The orbit data is extracted from the following two-line orbital elements,

1 40012U 14033C   21338.77792432  .00000427  00000-0  69715-4 0  9991
2 40012  97.6629 172.1672 0059258  69.7499 291.0068 14.74455605401290
Epoch (UTC): 04 December 2021 18:40:12
Eccentricity: 0.0059258
inclination: 97.6629°
perigee height: 605 km
apogee height: 688 km
right ascension of ascending node: 172.1672°
argument of perigee: 69.7499°
revolutions per day: 14.74455605
mean anomaly at epoch: 291.0068°
orbit number at epoch: 40129

The dashed part of the orbit path shows where the satellite is in the earth's shadow,  

DLR